Theta_e
309 308 308 308 307 309 310 309 310 310 311 312 310 310 309 309 309 309 309 309 309 310 311 315 317 317 320 322 332 344 345 345 346 349 351 349 347 345 345 345 344 343 341 338
308 308 309 309 310 310 310 311 311 311 310 310 310 310 309 310 311 311 311 311 310 309 309 311 316 318 320 323 327 333 343 344 342 342 343 343 344 345 345 343 342 340 334 329
308 309 311 311 311 311 311 312 312 312 311 311 311 311 310 310 310 310 310 310 309 309 309 308 311 318 321 323 326 328 336 340 340 340 341 337 334 334 339 340 343 341 339 337
308 309 310 310 311 311 310 310 311 312 311 311 310 312 310 310 309 310 309 308 308 308 308 308 310 315 320 323 325 327 329 335 340 342 342 339 334 333 332 332 332 337 343 342
311 310 310 311 311 311 311 311 311 312 310 309 310 308 309 309 310 310 309 308 308 308 308 309 309 312 317 321 324 328 328 330 334 337 336 333 331 330 330 330 330 329 326 332
311 310 310 311 312 311 312 312 310 307 307 311 310 309 311 309 310 309 310 310 311 311 310 311 313 311 316 321 325 326 325 324 324 323 322 324 325 327 326 326 325 326 326 325
312 312 311 312 312 311 312 309 311 312 312 316 312 310 311 310 310 310 310 310 311 310 311 316 313 315 319 319 323 322 320 318 317 315 315 314 315 317 320 321 322 323 322 321
312 314 313 314 311 311 311 310 312 317 316 316 314 317 314 311 310 310 311 311 311 310 311 316 318 317 318 317 316 318 318 317 317 317 316 317 317 316 315 315 317 318 320 320
314 315 314 314 314 313 313 313 311 314 317 317 316 316 315 314 313 314 314 313 310 310 310 313 313 315 317 317 318 319 318 318 318 317 317 317 318 318 319 320 320 320 319 318
313 315 313 315 315 315 314 314 315 314 324 323 320 320 318 315 315 315 314 313 312 311 310 310 311 314 316 317 315 315 317 317 317 317 318 318 319 320 321 322 321 320 319 321
313 312 314 315 316 316 315 317 319 319 320 326 325 319 311 315 314 315 313 313 314 312 311 310 311 312 313 314 316 316 316 317 317 318 318 318 319 321 322 322 321 320 318 319
315 315 317 316 314 314 315 316 318 323 323 322 322 317 313 312 315 313 313 314 314 314 312 311 310 312 314 314 314 313 315 316 317 316 318 318 319 319 322 322 321 320 318 317
313 315 318 316 314 315 317 316 316 316 315 315 317 315 313 311 312 311 311 312 313 314 314 313 310 309 311 312 313 314 312 312 315 316 316 317 319 319 321 322 321 320 319 318
312 316 320 321 318 316 318 317 316 317 319 316 316 314 311 310 311 311 313 315 315 315 314 313 309 309 310 311 311 312 313 314 314 315 315 316 316 318 319 321 321 319 318 318
312 315 313 313 311 313 315 315 314 314 313 314 312 311 310 314 313 314 314 315 316 315 315 314 313 311 310 311 313 314 315 315 315 314 313 315 316 316 317 318 319 319 318 319
307 309 312 310 309 309 310 311 311 310 308 307 311 313 314 314 313 313 313 312 313 312 312 312 312 311 310 310 311 312 312 312 312 313 316 315 316 317 317 317 318 318 318 318
306 307 310 310 308 309 310 309 311 310 316 316 316 316 315 314 312 311 311 311 310 310 309 309 308 308 308 308 309 309 311 311 311 311 312 313 315 316 315 316 316 317 317 317
305 305 306 308 308 312 309 315 315 316 317 317 315 312 310 310 309 307 306 308 307 306 305 305 305 305 306 306 307 308 309 309 310 310 311 311 311 312 314 315 316 316 316 315
305 306 309 310 308 309 312 318 316 315 315 312 311 309 306 306 304 304 305 304 304 304 304 304 304 304 304 304 304 307 308 308 308 309 310 311 311 312 312 313 314 314 315 315
309 307 308 305 313 311 311 314 313 313 317 310 306 304 304 304 305 305 303 303 303 304 304 302 301 302 302 301 302 303 305 307 307 308 309 309 310 311 312 313 313 313 314 314
313 307 310 313 314 311 314 311 311 316 311 305 303 303 303 305 304 304 304 304 304 303 302 301 301 300 300 301 302 303 304 305 306 306 306 306 307 307 308 308 309 310 312 313
309 315 313 314 315 315 310 308 310 307 304 304 303 303 303 303 304 304 304 303 304 303 301 300 301 300 301 301 300 300 300 301 302 304 305 305 306 306 307 307 307 308 311 313
311 311 308 311 308 307 307 305 305 304 305 304 304 303 304 304 304 302 302 303 300 298 300 301 300 299 299 299 300 301 302 302 302 302 303 303 304 304 305 306 307 309 309 310
307 309 311 311 309 307 305 305 305 304 305 305 303 303 304 304 304 303 300 300 299 299 299 299 299 299 300 300 300 301 301 302 302 303 303 304 304 305 306 307 308 308 308 309
305 307 307 307 305 304 306 305 304 305 303 303 303 304 304 304 304 302 299 298 299 298 298 298 298 299 299 300 300 301 302 302 303 303 304 304 305 306 306 307 307 308 309 308
309 307 300 302 302 304 305 304 304 303 303 303 303 304 304 302 303 300 298 297 297 297 297 298 298 298 299 300 301 302 303 304 305 306 306 306 307 308 308 309 308 307 308 309
Wind_Speed
1 2 6 10 8 7 4 4 9 11 15 5 8 8 10 8 6 8 9 9 8 7 8 13 13 18 24 31 32 34 37 37 38 34 31 29 31 30 30 30 29 29 27 24
3 6 11 6 6 7 9 11 13 11 12 6 9 9 9 6 5 5 7 8 9 6 8 9 10 16 22 25 31 30 35 36 33 30 29 22 28 28 29 28 29 26 24 24
7 10 4 6 7 6 8 6 8 13 6 4 4 6 6 5 4 7 7 8 8 10 11 8 9 21 26 28 33 35 35 36 33 30 27 16 14 13 16 16 18 20 20 22
6 12 9 10 6 6 7 7 10 8 3 7 4 16 5 6 9 6 9 10 11 11 10 8 8 13 29 37 33 34 35 31 33 33 30 25 20 14 17 15 13 11 13 12
10 6 8 6 11 7 10 8 9 9 6 1 4 5 5 6 7 13 8 11 11 11 9 10 10 20 31 34 38 34 33 30 27 27 25 22 17 14 12 14 16 19 10 15
12 1 7 11 13 7 2 4 4 4 1 6 8 9 8 7 8 7 7 9 10 8 9 9 18 26 24 29 34 34 30 26 24 20 17 14 14 14 15 17 18 19 19 17
16 12 5 4 6 7 3 5 3 4 3 12 5 7 9 6 9 11 12 13 10 8 7 6 8 7 16 29 36 34 30 26 22 19 15 13 14 15 15 16 16 16 16 16
4 9 6 2 7 9 8 8 4 7 5 12 4 6 5 5 10 11 10 9 8 9 7 5 4 2 7 7 13 27 28 25 23 19 17 16 15 17 19 20 19 17 15 15
2 5 4 7 1 3 2 4 6 4 2 6 4 6 6 4 8 8 12 16 14 10 5 8 7 6 10 17 26 26 26 25 25 24 23 23 22 22 22 21 20 18 17 17
2 5 7 3 6 5 5 1 3 3 4 8 4 4 5 5 7 8 11 10 11 12 8 5 4 5 13 17 14 14 26 32 31 31 30 29 29 28 27 25 24 22 19 18
4 5 5 3 5 6 4 2 3 2 3 3 4 5 5 5 5 6 8 9 7 10 11 6 2 6 9 7 16 22 25 25 33 36 34 33 34 33 32 30 27 25 21 19
2 5 6 10 8 8 6 2 4 3 3 3 3 6 7 8 6 6 11 12 15 11 9 11 8 8 7 8 9 16 28 35 31 31 38 39 39 37 37 35 32 29 26 23
5 3 4 7 2 3 6 2 4 3 1 6 4 5 3 7 11 10 9 8 9 8 17 17 10 8 6 7 7 11 11 26 34 32 25 27 34 39 40 40 37 34 31 30
8 4 6 4 6 3 7 10 5 6 3 5 7 17 14 14 14 13 8 8 7 8 13 17 7 7 7 14 11 10 9 10 17 25 31 35 37 37 44 45 43 40 37 35
2 4 9 10 12 9 12 12 12 11 11 8 15 13 8 9 10 7 6 9 12 10 6 6 6 6 6 13 14 5 4 2 8 13 24 30 34 38 36 38 44 45 42 41
6 5 4 14 13 14 16 16 13 14 14 11 6 6 1 6 7 7 8 10 10 9 10 12 12 12 11 16 22 23 22 18 15 15 14 17 25 25 29 31 32 39 43 43
5 2 1 4 3 4 6 5 2 3 3 1 3 2 9 11 12 11 12 13 8 9 12 13 14 13 17 22 24 27 31 26 23 23 22 18 17 18 23 27 32 36 38 40
5 5 3 3 3 2 2 2 6 6 1 3 2 8 10 10 12 13 15 15 6 7 12 13 13 19 25 27 31 29 29 28 26 26 26 27 28 26 26 25 27 31 34 35
10 4 1 1 2 6 2 3 4 5 6 4 5 12 14 13 13 15 6 5 12 19 17 14 22 27 29 29 34 29 29 31 30 30 28 27 26 26 27 30 30 33 31 33
4 3 3 2 2 4 3 4 6 3 7 3 6 9 11 13 11 15 8 16 20 19 21 23 35 27 27 35 32 32 32 30 26 27 27 26 25 26 26 27 29 31 33 34
1 2 4 2 3 5 2 6 7 3 3 6 7 10 11 13 15 22 20 21 20 24 24 32 27 28 32 32 33 29 28 29 30 28 29 31 32 31 33 33 33 33 32 34
2 0 1 1 3 5 1 5 3 2 5 7 12 13 16 19 21 19 20 23 22 17 22 34 23 26 28 27 28 31 31 36 36 36 35 35 35 34 32 33 36 38 36 34
1 3 3 6 4 1 2 7 3 2 8 12 15 16 19 22 19 22 24 17 18 20 22 23 24 26 32 32 30 28 33 33 35 36 35 36 39 41 40 37 34 32 35 34
5 2 1 3 0 3 11 2 2 8 13 14 16 19 19 21 21 22 17 18 18 16 18 25 24 20 23 30 31 32 34 36 35 33 35 36 35 34 35 36 35 33 32 31
4 4 2 5 4 7 3 8 12 14 16 16 17 19 21 22 24 13 18 19 17 16 23 25 21 20 26 32 32 35 35 35 32 33 35 34 33 37 39 42 42 41 44 41
2 2 2 4 3 4 10 10 15 16 17 18 21 21 19 22 20 19 18 16 15 17 23 22 25 26 30 31 31 35 35 34 32 29 30 31 33 34 35 33 34 49 49 46
Wind_Direction
18 103 219 227 204 225 245 225 251 268 272 239 244 271 276 282 300 307 308 297 288 280 278 298 272 248 234 218 205 199 195 199 198 196 195 200 199 195 192 196 198 199 207 219
20 241 239 222 212 216 228 247 265 276 262 205 269 272 265 251 240 244 279 292 271 266 284 282 256 224 219 218 208 203 203 195 195 194 191 195 205 212 207 199 197 210 231 244
190 243 209 197 269 254 252 219 256 246 264 266 279 279 264 277 253 264 263 253 272 259 271 258 236 227 227 218 209 206 202 203 198 195 190 189 190 186 188 194 207 222 233 246
227 250 242 268 232 197 260 212 236 246 220 257 167 276 239 254 263 238 264 272 261 261 267 269 244 227 222 228 220 208 199 193 197 198 202 205 203 206 225 221 190 197 204 222
234 206 200 229 250 185 237 240 232 249 236 137 256 287 261 196 264 270 251 254 265 260 252 261 254 239 230 223 215 202 189 185 184 188 199 202 200 207 215 227 242 245 215 213
243 216 176 232 259 241 300 313 327 37 113 252 248 234 246 233 234 258 259 267 253 267 279 264 268 254 215 202 197 184 174 173 177 178 185 201 220 229 235 242 248 253 259 256
252 255 251 211 267 290 151 69 314 307 290 273 247 264 259 246 264 251 251 265 265 257 261 311 307 234 186 175 181 182 178 177 182 181 191 210 231 239 243 248 251 256 262 265
212 289 224 196 194 213 221 168 189 259 249 280 311 252 250 234 263 272 288 269 250 243 208 151 140 170 175 194 181 174 176 179 182 182 189 204 218 231 238 243 244 247 254 260
293 256 305 318 263 128 237 212 213 268 268 296 232 299 313 315 329 357 348 357 317 239 240 161 140 159 156 179 184 190 190 194 189 194 200 209 215 219 226 234 237 243 245 247
271 296 257 293 359 276 202 179 348 357 288 262 244 248 229 343 343 338 342 340 334 329 325 69 123 180 189 205 263 245 209 196 198 205 208 214 218 220 226 224 225 230 238 240
199 194 269 41 221 227 267 124 96 313 181 261 278 255 204 234 268 326 322 318 320 301 301 301 0 156 152 205 230 232 236 235 214 214 216 221 224 223 227 227 228 228 232 235
114 206 231 244 238 257 259 226 175 197 215 237 287 259 273 302 297 340 308 312 313 309 294 288 271 214 182 178 206 217 235 237 242 241 223 227 230 228 226 230 231 231 230 233
342 345 309 317 340 26 74 91 86 123 137 205 246 261 323 310 295 267 254 267 285 317 305 293 260 256 281 246 222 227 240 244 242 245 247 255 232 228 229 230 231 231 231 234
3 217 225 248 255 262 295 285 240 194 228 265 232 283 283 279 275 295 306 323 314 311 294 275 275 280 269 267 257 259 242 273 262 243 243 239 240 239 230 232 232 232 232 234
122 233 235 257 278 265 255 252 253 257 244 228 275 262 308 330 318 318 304 321 319 324 337 346 341 341 339 350 338 322 243 200 318 279 254 238 235 235 239 230 229 234 234 236
203 257 264 275 270 261 263 262 258 253 256 253 271 283 238 296 311 326 328 336 329 342 348 345 344 341 334 333 326 326 320 314 317 314 299 275 250 243 240 239 237 235 234 236
199 200 258 259 287 315 283 248 282 284 41 273 271 327 347 331 322 319 327 322 302 329 334 330 327 324 323 321 318 313 311 311 305 297 294 293 272 250 242 244 242 239 235 235
195 173 177 264 357 237 232 40 78 359 113 342 343 348 316 304 306 306 299 287 300 316 319 315 316 316 313 311 306 297 297 296 291 285 281 275 272 270 269 260 247 242 239 239
190 154 201 189 204 295 216 46 43 2 301 76 345 317 316 317 313 297 277 350 317 318 307 295 299 295 292 297 296 291 290 283 275 269 263 254 249 250 252 252 249 249 242 237
79 80 155 106 200 245 236 359 334 320 250 92 332 298 307 319 299 295 305 305 294 290 292 307 297 288 287 287 281 278 276 271 263 263 260 260 256 253 248 246 244 243 237 238
154 50 176 172 247 287 86 305 318 275 266 319 331 304 289 287 276 287 294 296 292 292 296 296 286 292 281 277 275 270 272 267 269 269 266 260 257 254 255 256 253 252 247 239
136 262 201 131 239 260 91 326 228 258 307 308 298 285 288 286 292 294 300 294 289 293 294 290 285 283 286 283 281 277 271 271 269 270 266 263 259 253 252 252 254 250 242 235
333 167 214 183 231 206 184 243 239 311 284 307 302 296 294 292 299 305 294 306 301 298 289 287 284 284 281 276 273 273 273 272 270 265 263 262 259 255 252 246 243 241 236 235
325 25 251 332 255 295 298 244 292 313 309 297 292 289 289 293 291 301 306 302 296 289 291 289 289 281 278 278 275 270 272 271 269 268 265 264 262 258 252 248 244 240 236 230
219 352 354 280 308 327 115 327 304 309 307 303 300 299 301 305 302 296 304 302 292 293 292 288 285 283 281 282 278 276 274 272 267 263 260 259 255 249 245 238 232 229 229 227
168 189 141 250 267 248 282 303 311 307 307 305 302 307 306 307 303 312 294 298 296 292 294 290 288 285 281 282 281 281 280 277 270 261 258 253 253 254 249 243 237 232 228 223